Hourly Weather Ashtarak

Today, 14 August, Friday

Time Temperature Precipitation Wind Pressure Humidity
00:00 +20°C° 0 mm 3 mps 656 mmHg 69%
01:00 +19°C° 0 mm 3 mps 656 mmHg 69%
02:00 +19°C° 0 mm 3 mps 656 mmHg 70%
03:00 +18°C° 0 mm 3 mps 656 mmHg 71%
04:00 +19°C° 0 mm 2 mps 656 mmHg 71%
05:00 +19°C° 0 mm 2 mps 656 mmHg 71%
06:00 +19°C° 0 mm 2 mps 656 mmHg 71%
07:00 +20°C° 0.1 mm 2 mps 656 mmHg 66%
08:00 +23°C° 0.1 mm 2 mps 656 mmHg 61%
09:00 +24°C° 0.1 mm 1 mps 656 mmHg 56%
10:00 +25°C° 0.3 mm 1 mps 656 mmHg 53%
11:00 +26°C° 0.3 mm 1 mps 656 mmHg 50%
12:00 +27°C° 0.3 mm 1 mps 656 mmHg 47%
13:00 +28°C° 0.9 mm 2 mps 656 mmHg 47%
14:00 +28°C° 0.9 mm 3 mps 655 mmHg 47%
15:00 +28°C° 0.9 mm 4 mps 655 mmHg 47%
16:00 +27°C° 0.6 mm 4 mps 655 mmHg 50%
17:00 +26°C° 0.6 mm 5 mps 655 mmHg 53%
18:00 +25°C° 0.6 mm 5 mps 655 mmHg 56%
19:00 +22°C° 0.6 mm 4 mps 655 mmHg 61%
20:00 +21°C° 0.6 mm 4 mps 655 mmHg 65%
21:00 +19°C° 0.6 mm 3 mps 655 mmHg 70%
22:00 +19°C° 0.1 mm 3 mps 655 mmHg 70%
23:00 +19°C° 0.1 mm 2 mps 655 mmHg 70%

Tomorrow, 15 August, Saturday

Time Temperature Precipitation Wind Pressure Humidity
00:00 +18°C° 0.1 mm 2 mps 655 mmHg 70%
01:00 +18°C° 0 mm 2 mps 655 mmHg 71%
02:00 +18°C° 0 mm 2 mps 655 mmHg 72%
03:00 +17°C° 0 mm 2 mps 654 mmHg 72%
04:00 +17°C° 0 mm 2 mps 655 mmHg 73%
05:00 +18°C° 0 mm 2 mps 655 mmHg 73%
06:00 +18°C° 0 mm 2 mps 655 mmHg 74%
07:00 +19°C° 0 mm 2 mps 655 mmHg 68%
08:00 +22°C° 0 mm 1 mps 656 mmHg 63%
09:00 +23°C° 0 mm 1 mps 656 mmHg 57%
10:00 +24°C° 0.1 mm 1 mps 656 mmHg 55%
11:00 +25°C° 0.1 mm 1 mps 656 mmHg 52%
12:00 +26°C° 0.1 mm 1 mps 656 mmHg 49%
13:00 +27°C° 0.1 mm 2 mps 656 mmHg 48%
14:00 +27°C° 0.1 mm 2 mps 656 mmHg 46%
15:00 +28°C° 0.1 mm 3 mps 656 mmHg 44%
16:00 +27°C° 0 mm 4 mps 656 mmHg 47%
17:00 +26°C° 0 mm 4 mps 656 mmHg 49%
18:00 +25°C° 0 mm 5 mps 655 mmHg 52%
19:00 +23°C° 0 mm 5 mps 656 mmHg 54%
20:00 +21°C° 0 mm 5 mps 656 mmHg 57%
21:00 +20°C° 0 mm 4 mps 656 mmHg 59%
22:00 +20°C° 0 mm 4 mps 656 mmHg 58%
23:00 +19°C° 0 mm 3 mps 656 mmHg 57%

Day after tomorrow, 16 August, Sunday

Time Temperature Precipitation Wind Pressure Humidity
00:00 +19°C° 0 mm 3 mps 657 mmHg 55%
01:00 +18°C° 0 mm 3 mps 656 mmHg 57%
02:00 +18°C° 0 mm 3 mps 656 mmHg 59%
03:00 +17°C° 0 mm 3 mps 656 mmHg 61%
04:00 +17°C° 0 mm 2 mps 656 mmHg 62%
05:00 +17°C° 0 mm 2 mps 656 mmHg 64%
06:00 +17°C° 0 mm 2 mps 656 mmHg 66%
07:00 +19°C° 0 mm 2 mps 656 mmHg 61%
08:00 +20°C° 0 mm 2 mps 656 mmHg 57%
09:00 +23°C° 0 mm 2 mps 657 mmHg 52%
10:00 +24°C° 0 mm 2 mps 657 mmHg 50%
11:00 +25°C° 0 mm 2 mps 657 mmHg 48%
12:00 +27°C° 0 mm 2 mps 657 mmHg 46%
13:00 +27°C° 0 mm 2 mps 657 mmHg 45%
14:00 +28°C° 0 mm 3 mps 656 mmHg 44%
15:00 +28°C° 0 mm 3 mps 656 mmHg 43%
16:00 +27°C° 0.1 mm 3 mps 656 mmHg 47%
17:00 +26°C° 0.1 mm 4 mps 656 mmHg 51%
18:00 +25°C° 0.1 mm 4 mps 655 mmHg 56%
19:00 +23°C° 0.6 mm 4 mps 655 mmHg 60%
20:00 +21°C° 0.6 mm 4 mps 655 mmHg 64%
21:00 +20°C° 0.6 mm 4 mps 656 mmHg 69%
22:00 +19°C° 1.1 mm 3 mps 655 mmHg 73%
23:00 +18°C° 1.1 mm 2 mps 655 mmHg 77%

17 August, Monday

Time Temperature Precipitation Wind Pressure Humidity
00:00 +18°C° 1.1 mm 2 mps 655 mmHg 80%
01:00 +19°C° 0.6 mm 1 mps 655 mmHg 81%
02:00 +19°C° 0.6 mm 1 mps 655 mmHg 82%
03:00 +18°C° 0.6 mm 1 mps 655 mmHg 82%
04:00 +18°C° 0.2 mm 1 mps 655 mmHg 81%
05:00 +19°C° 0.2 mm 1 mps 656 mmHg 80%
06:00 +19°C° 0.2 mm 1 mps 656 mmHg 79%
07:00 +20°C° 0.1 mm 1 mps 656 mmHg 73%
08:00 +21°C° 0.1 mm 1 mps 657 mmHg 68%
09:00 +22°C° 0.1 mm 1 mps 657 mmHg 62%
10:00 +23°C° 0.1 mm 1 mps 657 mmHg 59%
11:00 +24°C° 0.1 mm 1 mps 657 mmHg 56%
12:00 +25°C° 0.1 mm 2 mps 658 mmHg 53%
13:00 +26°C° 0.1 mm 2 mps 658 mmHg 52%
14:00 +27°C° 0.1 mm 2 mps 658 mmHg 51%
15:00 +27°C° 0.1 mm 3 mps 658 mmHg 49%
16:00 +26°C° 0.1 mm 4 mps 657 mmHg 52%
17:00 +25°C° 0.1 mm 4 mps 657 mmHg 55%
18:00 +23°C° 0.1 mm 5 mps 657 mmHg 58%
19:00 +22°C° 0.1 mm 4 mps 657 mmHg 61%
20:00 +21°C° 0.1 mm 4 mps 657 mmHg 65%
21:00 +19°C° 0.1 mm 4 mps 658 mmHg 68%
22:00 +19°C° 0.1 mm 3 mps 657 mmHg 69%
23:00 +18°C° 0.1 mm 3 mps 657 mmHg 71%

18 August, Tuesday

Time Temperature Precipitation Wind Pressure Humidity
00:00 +18°C° 0.1 mm 3 mps 657 mmHg 72%
01:00 +18°C° 0.1 mm 2 mps 657 mmHg 73%
02:00 +17°C° 0.1 mm 2 mps 657 mmHg 73%
03:00 +17°C° 0.1 mm 2 mps 657 mmHg 74%
04:00 +17°C° 0 mm 2 mps 657 mmHg 74%
05:00 +17°C° 0 mm 2 mps 657 mmHg 74%
06:00 +18°C° 0 mm 1 mps 657 mmHg 75%
07:00 +20°C° 0 mm 1 mps 657 mmHg 69%
08:00 +21°C° 0 mm 1 mps 657 mmHg 64%
09:00 +23°C° 0 mm 1 mps 657 mmHg 58%
10:00 +24°C° 0 mm 2 mps 657 mmHg 55%
11:00 +25°C° 0 mm 2 mps 657 mmHg 52%
12:00 +26°C° 0 mm 2 mps 657 mmHg 49%
13:00 +27°C° 0 mm 2 mps 657 mmHg 48%
14:00 +27°C° 0 mm 2 mps 656 mmHg 46%
15:00 +28°C° 0 mm 2 mps 656 mmHg 45%
16:00 +27°C° 0.1 mm 3 mps 656 mmHg 48%
17:00 +26°C° 0.1 mm 3 mps 655 mmHg 52%
18:00 +25°C° 0.1 mm 4 mps 655 mmHg 56%
19:00 +23°C° 0 mm 4 mps 655 mmHg 59%
20:00 +21°C° 0 mm 4 mps 655 mmHg 62%
21:00 +20°C° 0 mm 4 mps 655 mmHg 65%
22:00 +19°C° 0.1 mm 3 mps 655 mmHg 67%
23:00 +19°C° 0.1 mm 3 mps 655 mmHg 68%

19 August, Wednesday

Time Temperature Precipitation Wind Pressure Humidity
00:00 +18°C° 0.1 mm 3 mps 655 mmHg 69%
01:00 +18°C° 0.1 mm 3 mps 655 mmHg 71%
02:00 +18°C° 0.1 mm 2 mps 655 mmHg 72%
03:00 +17°C° 0.1 mm 2 mps 654 mmHg 73%
04:00 +17°C° 0.1 mm 2 mps 654 mmHg 74%
05:00 +17°C° 0.1 mm 2 mps 655 mmHg 74%
06:00 +17°C° 0.1 mm 2 mps 655 mmHg 75%
07:00 +19°C° 0 mm 2 mps 655 mmHg 68%
08:00 +22°C° 0 mm 1 mps 655 mmHg 62%
09:00 +23°C° 0 mm 1 mps 655 mmHg 55%
10:00 +25°C° 0.1 mm 1 mps 656 mmHg 52%
11:00 +26°C° 0.1 mm 1 mps 656 mmHg 48%
12:00 +28°C° 0.1 mm 1 mps 656 mmHg 44%
13:00 +28°C° 0.2 mm 1 mps 655 mmHg 43%
14:00 +29°C° 0.2 mm 2 mps 655 mmHg 42%
15:00 +29°C° 0.2 mm 2 mps 655 mmHg 40%
16:00 +28°C° 0.1 mm 3 mps 655 mmHg 44%
17:00 +27°C° 0.1 mm 3 mps 655 mmHg 48%
18:00 +26°C° 0.1 mm 4 mps 655 mmHg 52%
19:00 +25°C° 0.1 mm 4 mps 655 mmHg 55%
20:00 +22°C° 0.1 mm 4 mps 655 mmHg 59%
21:00 +21°C° 0.1 mm 4 mps 655 mmHg 62%
22:00 +20°C° 0 mm 3 mps 655 mmHg 63%
23:00 +20°C° 0 mm 3 mps 655 mmHg 64%
Show more